Date String (YYYY-MM-DD hh:mm:ss) UTC,Instrument flags,absolute air pressure of the measurement (hPa),sample flow rate (lpm),inlet stack bypass flow (lpm),air temperature of the measurement (°C),ambient temperature measured by the external sensor (°C),aerosol sample conditioner tube jacket temperature (°C),OPC LED temperature (°C),internal box temperature (°C),relative humidity of the measurement (%),span deviation,mass concentration of particles derived from Lorenz-Mie calculation of OPC scattering (μg/m³),mass concentration of particles derived from Lorenz-Mie calculation of OPC scattering (μg/m³),mass concentration of particles derived from Lorenz-Mie calculation of OPC scattering (μg/m³)
DateTimeUTC,F1_M11,P_M11,Q1_M11,Q2_M11,T1_M11,T2_M11,T3_M11,T4_M11,T5_M11,U1_M11,ZSPAN_M11,X2_M11,X0_M11,X1_M11
2023-11-21 08:00:00,SystemResetWarning,0841.7,5.00,000.00,020.2,019.3,000.0,028.6,021.3,17.1,0000.0,0001.84,0003.10,0001.54
2023-11-21 08:01:00,SystemResetWarning,0841.7,5.01,000.00,020.2,019.3,000.0,028.6,021.3,17.1,0000.0,0001.82,0003.86,0001.55
2023-11-21 08:02:00,SystemResetWarning,0841.7,5.01,000.00,020.2,019.3,000.0,028.6,021.3,17.0,0000.0,0001.79,0003.77,0001.54
2023-11-21 08:03:00,SystemResetWarning,0841.7,5.00,000.00,020.2,019.3,000.0,028.6,021.4,16.9,0000.0,0001.79,0003.76,0001.54
2023-11-21 08:04:00,SystemResetWarning,0841.7,4.99,000.00,020.2,019.3,000.0,028.6,021.3,16.9,0000.0,0001.77,0003.66,0001.53
2023-11-21 08:05:00,SystemResetWarning,0841.6,4.99,000.00,020.2,019.3,000.0,028.6,021.3,16.9,0000.0,0001.72,0003.73,0001.51
2023-11-21 08:06:00,SystemResetWarning,0841.7,4.99,000.00,020.2,019.3,000.0,028.6,021.3,17.0,0000.0,0001.69,0003.70,0001.50
2023-11-21 08:07:00,SystemResetWarning,0841.7,5.01,000.00,020.2,019.3,000.0,028.6,021.3,17.0,0000.0,0001.68,0003.71,0001.50
2023-11-21 08:08:00,SystemResetWarning,0841.7,5.01,000.00,020.1,019.3,000.0,028.6,021.3,17.0,0000.0,0001.72,0003.81,0001.50
2023-11-21 08:09:00,SystemResetWarning,0841.7,5.01,000.00,020.1,019.3,000.0,028.6,021.3,17.0,0000.0,0001.75,0004.10,0001.51
2023-11-21 08:10:00,SystemResetWarning,0841.7,5.00,000.00,020.1,019.3,000.0,028.6,021.3,17.0,0000.0,0001.76,0004.13,0001.52
2023-11-21 08:11:00,SystemResetWarning,0841.7,5.00,000.00,020.1,019.3,000.0,028.6,021.3,17.1,0000.0,0001.79,0004.20,0001.52
2023-11-21 08:12:00,SystemResetWarning,0841.7,5.00,000.00,020.1,019.3,000.0,028.5,021.3,17.0,0000.0,0001.83,0003.67,0001.52
2023-11-21 08:13:00,SystemResetWarning,0841.7,4.99,000.00,020.1,019.2,000.0,028.5,021.3,17.0,0000.0,0001.85,0004.19,0001.52
2023-11-21 08:14:00,SystemResetWarning,0841.6,5.00,000.00,020.1,019.2,000.0,028.5,021.3,16.9,0000.0,0001.89,0004.25,0001.52
2023-11-21 08:15:00,SystemResetWarning,0841.7,5.00,000.00,020.1,019.2,000.0,028.5,021.2,16.9,0000.0,0001.92,0004.31,0001.52
2023-11-21 08:16:00,SystemResetWarning,0841.6,5.00,000.00,020.1,019.2,000.0,028.5,021.2,16.9,0000.0,0001.92,0004.12,0001.52
2023-11-21 08:17:00,SystemResetWarning,0841.6,5.00,000.00,020.1,019.2,000.0,028.5,021.2,16.9,0000.0,0001.92,0004.06,0001.52
2023-11-21 08:18:00,SystemResetWarning,0841.6,5.00,000.00,020.1,019.2,000.0,028.5,021.2,16.8,0000.0,0001.92,0004.03,0001.53
2023-11-21 08:19:00,SystemResetWarning,0841.6,5.01,000.00,020.1,019.2,000.0,028.5,021.2,16.8,0000.0,0001.89,0003.98,0001.54
2023-11-21 08:20:00,SystemResetWarning,0841.6,5.01,000.00,020.1,019.2,000.0,028.5,021.2,16.8,0000.0,0001.85,0003.69,0001.52
2023-11-21 08:21:00,SystemResetWarning,0841.6,5.01,000.00,020.1,019.2,000.0,028.5,021.2,16.8,0000.0,0001.84,0003.65,0001.51
2023-11-21 08:22:00,SystemResetWarning,0841.7,5.00,000.00,020.1,019.1,000.0,028.5,021.2,16.7,0000.0,0001.82,0003.65,0001.50
2023-11-21 08:23:00,SystemResetWarning,0841.7,5.00,000.00,020.0,019.1,000.0,028.5,021.2,16.7,0000.0,0001.79,0002.93,0001.51
2023-11-21 08:24:00,SystemResetWarning,0841.7,5.00,000.00,020.0,019.1,000.0,028.5,021.2,16.6,0000.0,0001.79,0002.44,0001.52
2023-11-21 08:25:00,SystemResetWarning,0841.7,5.00,000.00,020.0,019.1,000.0,028.4,021.2,16.6,0000.0,0001.74,0002.33,0001.51
2023-11-21 08:26:00,SystemResetWarning,0841.7,5.00,000.00,020.0,019.2,000.0,028.4,021.2,16.6,0000.0,0001.71,0002.25,0001.53
2023-11-21 08:27:00,SystemResetWarning,0841.7,5.00,000.00,020.0,019.2,000.0,028.4,021.2,16.6,0000.0,0001.74,0002.55,0001.55
2023-11-21 08:28:00,SystemResetWarning,0841.7,5.00,000.00,020.0,019.2,000.0,028.4,021.2,16.6,0000.0,0001.76,0003.56,0001.56
2023-11-21 08:29:00,SystemResetWarning,0841.7,5.00,000.00,020.0,019.2,000.0,028.4,021.3,16.6,0000.0,0001.79,0004.10,0001.58
2023-11-21 08:30:00,SystemResetWarning,0841.7,5.00,000.00,020.0,019.2,000.0,028.4,021.3,16.6,0000.0,0001.80,0005.02,0001.60
2023-11-21 08:31:00,SystemResetWarning,0841.7,5.00,000.00,020.1,019.3,000.0,028.4,021.3,16.5,0000.0,0001.83,0005.06,0001.61
2023-11-21 08:32:00,SystemResetWarning,0841.7,5.00,000.00,020.1,019.3,000.0,028.4,021.3,16.6,0000.0,0001.87,0005.17,0001.63
2023-11-21 08:33:00,SystemResetWarning,0841.7,5.00,000.00,020.1,019.3,000.0,028.4,021.3,16.6,0000.0,0001.91,0005.27,0001.65
2023-11-21 08:34:00,SystemResetWarning,0841.7,4.99,000.00,020.1,019.4,000.0,028.4,021.4,16.7,0000.0,0001.94,0005.27,0001.66
2023-11-21 08:35:00,SystemResetWarning,0841.7,5.00,000.00,020.1,019.4,000.0,028.4,021.4,16.7,0000.0,0001.95,0005.26,0001.67
2023-11-21 08:36:00,SystemResetWarning,0841.6,5.00,000.00,020.2,019.4,000.0,028.4,021.4,16.7,0000.0,0001.97,0005.52,0001.67
2023-11-21 08:37:00,SystemResetWarning,0841.6,5.01,000.00,020.2,019.4,000.0,028.5,021.4,16.7,0000.0,0001.98,0005.57,0001.67
2023-11-21 08:38:00,SystemResetWarning,0841.6,5.01,000.00,020.2,019.5,000.0,028.5,021.5,16.7,0000.0,0001.97,0005.34,0001.67
2023-11-21 08:39:00,SystemResetWarning,0841.6,5.00,000.00,020.2,019.5,000.0,028.5,021.5,16.7,0000.0,0001.95,0004.42,0001.67
2023-11-21 08:40:00,SystemResetWarning,0841.6,5.00,000.00,020.2,019.5,000.0,028.5,021.5,16.7,0000.0,0001.94,0004.16,0001.66
2023-11-21 08:41:00,SystemResetWarning,0841.6,5.00,000.00,020.2,019.5,000.0,028.5,021.5,16.7,0000.0,0001.94,0003.05,0001.66
2023-11-21 08:42:00,SystemResetWarning,0841.6,5.01,000.00,020.2,019.5,000.0,028.5,021.5,16.7,0000.0,0001.93,0003.03,0001.65
2023-11-21 08:43:00,SystemResetWarning,0841.6,4.99,000.00,020.3,019.5,000.0,028.5,021.5,16.6,0000.0,0001.89,0002.94,0001.63
2023-11-21 08:44:00,SystemResetWarning,0841.6,5.00,000.00,020.3,019.6,000.0,028.5,021.5,16.6,0000.0,0001.86,0003.12,0001.62
2023-11-21 08:45:00,SystemResetWarning,0841.7,5.00,000.00,020.3,019.6,000.0,028.5,021.5,16.6,0000.0,0001.82,0003.57,0001.60
2023-11-21 08:46:00,SystemResetWarning,0841.7,5.00,000.00,020.3,019.6,000.0,028.5,021.6,16.6,0000.0,0001.82,0003.67,0001.59
2023-11-21 08:47:00,SystemResetWarning,0841.7,5.00,000.00,020.3,019.6,000.0,028.5,021.6,16.6,0000.0,0001.84,0003.67,0001.60
2023-11-21 08:48:00,SystemResetWarning,0841.7,5.00,000.00,020.3,019.6,000.0,028.5,021.6,16.6,0000.0,0001.85,0003.69,0001.61
2023-11-21 08:49:00,SystemResetWarning,0841.6,5.01,000.00,020.3,019.6,000.0,028.6,021.6,16.7,0000.0,0001.84,0003.66,0001.61
2023-11-21 08:50:00,SystemResetWarning,0841.7,5.01,000.00,020.3,019.6,000.0,028.6,021.6,16.7,0000.0,0001.84,0003.54,0001.60
2023-11-21 08:51:00,SystemResetWarning,0841.6,4.99,000.00,020.3,019.6,000.0,028.6,021.6,16.8,0000.0,0001.87,0003.70,0001.60
2023-11-21 08:52:00,SystemResetWarning,0841.6,4.99,000.00,020.3,019.6,000.0,028.6,021.6,16.7,0000.0,0001.91,0003.84,0001.60
2023-11-21 08:53:00,SystemResetWarning,0841.6,5.00,000.00,020.4,019.6,000.0,028.6,021.6,16.7,0000.0,0001.92,0003.86,0001.61
2023-11-21 08:54:00,SystemResetWarning,0841.7,4.99,000.00,020.4,019.7,000.0,028.6,021.6,16.7,0000.0,0001.96,0003.92,0001.62
2023-11-21 08:55:00,SystemResetWarning,0841.7,5.00,000.00,020.4,019.7,000.0,028.6,021.6,16.8,0000.0,0001.99,0003.87,0001.62
2023-11-21 08:56:00,SystemResetWarning,0841.7,5.00,000.00,020.4,019.7,000.0,028.6,021.6,16.8,0000.0,0002.02,0003.25,0001.63
2023-11-21 08:57:00,SystemResetWarning,0841.7,5.00,000.00,020.4,019.7,000.0,028.6,021.6,16.8,0000.0,0002.06,0003.33,0001.65
2023-11-21 08:58:00,SystemResetWarning,0841.7,5.01,000.00,020.4,019.6,000.0,028.6,021.6,16.9,0000.0,0002.06,0003.27,0001.65
2023-11-21 08:59:00,SystemResetWarning,0841.7,5.00,000.00,020.4,019.6,000.0,028.6,021.6,16.9,0000.0,0002.05,0003.23,0001.65
